{"data":{"norad_id":40021,"intl_designator":"2014-033M","name":"DUCHIFAT-1","alt_names":[],"object_type":"PAYLOAD","status":"ACTIVE","operator":null,"country":"ISRA","launch_date":"2014-06-19","launch_site_code":"DLS","launch_vehicle":null,"mission":null,"orbit_class":"UNKNOWN","rcs_meters":0.037,"size_class":null,"mass_kg":null,"dimensions":null,"purposes":["comms","tech_demo"],"wikipedia_slug":null,"has_3d_model":false,"image_url":null,"decayed_at":null,"tle_current":{"epoch":"2026-09-16T20:44:11.096448Z","epoch_age_seconds":329275,"freshness":"STALE","line1":"1 40021U 14033M   26259.86401732  .05638238  28638-5  12995-2 0  9998","line2":"2 40021  98.0058 334.1636 0011785 272.4633  87.5310 16.29776824670227","mean_motion":16.29776824,"eccentricity":0.0011785,"inclination_deg":98.0058,"raan_deg":334.1636,"arg_perigee_deg":272.4633,"mean_anomaly_deg":87.531,"bstar":0.0012995,"rev_number":67022,"period_min":88.355655743452,"perigee_km":185.39537333753,"apogee_km":200.88387233756,"semimajor_km":6571.2766228375,"source":"CELESTRAK","updated_at":"2026-09-17T09:00:45.682845Z"}}}